User: anonymous   Login
Location: Unspecified
(0.0000°N, 0.0000°E)
Time: 19:17:46
(UTC+00:00)
Language:

UHF F/O F2 - Orbit

View from above orbital plane
View from above orbital plane
View from above satellite
View from above satellite

Ground track
Ground track

The orbit data is extracted from the following two-line orbital elements,

1 22787U 93056A   21136.83382678  .00000132  00000-0  00000-0 0  9993
2 22787  11.3726  13.3642 0000940  37.1122 153.1140  1.00271156 99923
Epoch (UTC): 16 May 2021 20:00:42
Eccentricity: 0.0000940
inclination: 11.3726°
perigee height: 35782 km
apogee height: 35790 km
right ascension of ascending node: 13.3642°
argument of perigee: 37.1122°
revolutions per day: 1.00271156
mean anomaly at epoch: 153.1140°
orbit number at epoch: 9992

The dashed part of the orbit path shows where the satellite is in the earth's shadow,  

DLR